www.pogodaiklimat.ru

Погода и климат >> Архив погоды >> Франц. Южн. Территории >> Martin De Vivies Ile Amsterdam


ПОГОДА в Martin De Vivies Ile Amsterdam

  • Прогноз погоды в Martin De Vivies Ile Amsterdam
  • Монитор погоды в Martin De Vivies Ile Amsterdam
  • Климат города

АРХИВ ПОГОДЫ в Martin De Vivies Ile Amsterdam

Время (UTC), дата Ветер
(напр.,м/с)
 
Видим.   Явления Облачность Т
(С)
Тd
(С)
f
(%)
Тe
(С)
Тes
(С)
Комфортность P
(гПа)
Po
(гПа)
Тmin
(С)
Tmax
(С)
R
(мм)
R24
(мм)
S
(см)
23 6.12 СЗ 7
{11}
н/о н/о +16.7 +13.0 79 +16 +16 1025.1 1021.6
22 6.12 З 7
{13}
н/о н/о +16.4 +13.3 82 +15 +15 1025.1 1021.6
00 7.12 З 4
{9}
н/о н/о +16.9 +13.4 80 +16 +16 1025.4 1021.9
01 7.12 З 5
{8}
н/о н/о +17.4 +13.9 80 +17 +17 1025.6 1022.1
02 7.12 З 7
{10}
н/о н/о +18.0 +13.9 77 +17 +17 1025.7 1022.2
03 7.12 З 7
{11}
н/о н/о +18.8 +14.7 77 +19 +19 1025.9 1022.4
05 7.12 З 9
{13}
н/о н/о +19.7 +14.7 73 +21 +21 комфорт 1025.6 1022.2
04 7.12 З 7
{11}
н/о н/о +20.7 +15.0 70 +23 +23 комфорт 1025.6 1022.2
06 7.12 СЗ 8 н/о н/о +21.3 +15.6 70 +25 +25 комфорт 1025.4 1022.0 +16.2 +22.1
07 7.12 З 7
{13}
н/о н/о +20.0 +14.8 72 +22 +22 комфорт 1025.3 1021.9
08 7.12 З 8
{14}
н/о н/о +21.9 +15.3 66 +25 +25 комфорт 1025.4 1022.0
09 7.12 З 7
{12}
н/о н/о +21.7 +15.3 67 +25 +25 комфорт 1025.5 1022.1
11 7.12 З 6
{10}
н/о н/о +20.3 +14.9 71 +23 +23 комфорт 1025.2 1021.8
10 7.12 З 6
{12}
н/о н/о +21.4 +14.5 65 +24 +24 комфорт 1025.5 1022.1
12 7.12 З 6
{9}
н/о н/о +19.1 +15.4 79 +20 +20 1025.1 1021.7
13 7.12 З 6
{10}
н/о н/о +18.0 +15.1 83 +17 +17 1025.5 1022.0
14 7.12 З 5
{9}
н/о н/о +17.7 +15.5 87 +17 +17 1025.9 1022.4
15 7.12 З 5
{8}
н/о н/о +17.4 +15.6 89 +17 +17 1026.3 1022.8
17 7.12 З 8
{11}
н/о н/о +17.3 +15.6 90 +16 +16 1026.1 1022.6
16 7.12 З 7
{9}
н/о н/о +17.4 +15.6 89 +16 +16 1026.5 1023.0
18 7.12 З 8
{12}
н/о н/о +17.1 +15.4 90 +16 +16 1025.9 1022.4 +17.1 +22.5
21 7.12 З 8
{11}
н/о н/о +17.0 +15.5 91 +16 +16 1025.4 1021.9
00 8.12 З 4
{8}
н/о н/о +16.4 +14.4 88 +16 +16 1026.3 1022.8
01 8.12 З 5
{8}
н/о н/о +17.4 +14.9 85 +17 +17 1026.4 1022.9
02 8.12 З 7
{9}
н/о н/о +18.8 +14.3 75 +19 +19 1026.7 1023.2
03 8.12 З 9
{11}
н/о н/о +19.9 +14.3 70 +21 +21 комфорт 1026.5 1023.1
05 8.12 З 11
{15}
н/о н/о +21.6 +15.0 66 +25 +25 комфорт 1026.3 1022.9
04 8.12 З 10
{14}
н/о н/о +20.9 +15.0 69 +23 +23 комфорт 1026.2 1022.8
06 8.12 З 8 н/о н/о +22.0 +16.3 70 +26 +26 душно 1026.6 1023.2 +16.3 +22.3
07 8.12 СЗ 8
{11}
н/о н/о +22.7 +15.0 62 +27 +27 душно 1026.3 1022.9
08 8.12 З 10
{13}
н/о н/о +23.0 +14.8 60 +27 +27 душно 1025.6 1022.2
09 8.12 З 11
{14}
н/о н/о +21.8 +14.4 63 +25 +25 комфорт 1025.4 1022.0
11 8.12 З 8
{12}
н/о н/о +19.1 +14.8 76 +20 +20 1024.6 1021.2
10 8.12 З 9
{13}
н/о н/о +21.3 +14.7 66 +24 +24 комфорт 1025.1 1021.7
12 8.12 З 6
{11}
н/о н/о +19.0 +15.3 79 +20 +20 1024.8 1021.4
13 8.12 З 5
{10}
н/о н/о +18.4 +15.5 83 +19 +19 1025.1 1021.6
14 8.12 З 4
{8}
н/о н/о +17.9 +15.5 86 +18 +18 1025.4 1021.9
15 8.12 З 4
{6}
н/о н/о +17.7 +15.5 87 +18 +18 1025.6 1022.1
17 8.12 З 5
{8}
н/о н/о +17.2 +15.4 89 +17 +17 1026.0 1022.5
16 8.12 З 3
{6}
н/о н/о +17.0 +15.2 89 +17 +17 1026.0 1022.5
18 8.12 З 6
{8}
н/о н/о +17.2 +15.2 88 +16 +16 1025.7 1022.2 +17.0 +23.6
19 8.12 З 7
{10}
н/о н/о +17.2 +15.5 90 +16 +16 1025.2 1021.7
20 8.12 З 7
{12}
н/о н/о +17.5 +15.7 89 +17 +17 1025.2 1021.7
21 8.12 З 9
{12}
н/о н/о +17.4 +15.7 90 +16 +16 1024.3 1020.8
23 8.12 З 9
{12}
н/о н/о +17.2 +15.9 92 +16 +16 1024.0 1020.5
22 8.12 З 8
{12}
н/о н/о +17.5 +16.0 91 +16 +16 1023.9 1020.4
00 9.12 З 9
{12}
н/о н/о +17.4 +15.9 91 +16 +16 1024.1 1020.6
01 9.12 З 9
{14}
н/о н/о +17.7 +15.7 88 +17 +17 1023.9 1020.4
02 9.12 З 9
{14}
н/о н/о +18.5 +16.1 86 +18 +18 1023.8 1020.4
03 9.12 З 10
{14}
н/о н/о +18.9 +16.1 84 +19 +19 1023.8 1020.4
05 9.12 З 10
{14}
н/о н/о +19.3 +15.8 80 +20 +20 1023.3 1019.9
04 9.12 З 10
{14}
н/о н/о +20.2 +16.2 78 +22 +22 комфорт 1023.6 1020.2
06 9.12 З 12 н/о н/о +21.1 +15.9 72 +24 +24 комфорт 1023.0 1019.6 +17.1 +21.1
07 9.12 З 12-17
{17}
н/о н/о +21.7 +16.2 71 +25 +25 комфорт 1022.8 1019.4
08 9.12 З 12-17
{19}
н/о н/о +21.9 +16.2 70 +26 +26 душно 1022.6 1019.2
09 9.12 З 12
{17}
н/о н/о +21.1 +16.3 74 +24 +24 комфорт 1022.3 1018.9
11 9.12 З 10
{18}
н/о н/о +19.8 +16.2 80 +21 +21 комфорт 1021.4 1018.0
10 9.12 З 11
{17}
н/о н/о +20.5 +16.3 77 +23 +23 комфорт 1021.8 1018.4
12 9.12 З 11
{16}
н/о н/о +19.0 +16.0 83 +19 +19 1021.1 1017.7
13 9.12 З 11
{16}
н/о н/о +18.5 +16.1 86 +18 +18 1021.3 1017.9
14 9.12 З 11
{16}
н/о н/о +18.2 +16.4 89 +17 +17 1021.4 1018.0
15 9.12 З 10
{14}
н/о н/о +18.0 +16.5 91 +17 +17 1021.8 1018.4
17 9.12 З 9
{13}
н/о н/о +17.8 +16.3 91 +17 +17 1021.6 1018.2
16 9.12 З 9
{15}
н/о н/о +17.9 +16.4 91 +17 +17 1021.9 1018.5
18 9.12 З 8
{14}
н/о н/о +17.7 +16.2 91 +17 +17 1021.3 1017.9 +17.7 +22.4
19 9.12 З 9
{14}
н/о н/о +17.7 +16.4 92 +17 +17 1020.8 1017.4
20 9.12 З 11-16
{17}
н/о н/о +17.7 +16.2 91 +16 +16 1020.0 1016.6
21 9.12 З 12
{17}
н/о н/о +17.5 +15.7 89 +16 +16 1019.8 1016.4
23 9.12 З 10
{17}
н/о н/о +17.7 +15.9 89 +16 +16 1019.8 1016.4
22 9.12 З 11-16
{18}
н/о н/о +17.7 +15.7 88 +16 +16 1019.8 1016.4
00 10.12 З 11
{15}
н/о н/о +17.7 +15.9 89 +16 +16 1019.9 1016.5
01 10.12 З 11
{15}
н/о н/о +18.1 +15.9 87 +17 +17 1020.2 1016.8
02 10.12 З 10
{16}
н/о н/о +19.0 +15.9 82 +19 +19 1020.5 1017.1
03 10.12 З 10-15
{15}
н/о н/о +20.8 +16.6 77 +24 +24 комфорт 1020.8 1017.4
05 10.12 З 11
{15}
н/о н/о +21.8 +16.7 73 +26 +26 душно 1020.8 1017.4
04 10.12 З 10
{16}
н/о н/о +21.6 +16.5 73 +25 +25 комфорт 1020.9 1017.5
06 10.12 З 9 н/о н/о +22.0 +16.9 73 +26 +26 душно 1020.8 1017.4 +17.4 +22.6
07 10.12 З 9
{12}
н/о н/о +20.6 +18.4 87 +24 +24 комфорт 1020.6 1017.2
08 10.12 З 10
{15}
н/о н/о +21.5 +17.1 76 +25 +25 комфорт 1020.4 1017.0
09 10.12 З 10
{15}
н/о н/о +20.9 +17.3 80 +24 +24 комфорт 1020.2 1016.8
11 10.12 З 10
{15}
н/о н/о +19.2 +17.0 87 +20 +20 1019.7 1016.3
10 10.12 З 9
{15}
н/о н/о +20.3 +17.1 82 +23 +23 комфорт 1020.1 1016.7
12 10.12 З 9
{13}
н/о н/о +19.0 +17.0 88 +20 +20 1019.4 1016.0
13 10.12 З 7
{14}
н/о н/о +18.7 +17.0 90 +19 +19 1019.6 1016.2
14 10.12 З 7
{11}
н/о н/о +18.5 +17.2 92 +19 +19 1019.5 1016.1
15 10.12 З 8
{11}
н/о н/о +18.4 +17.2 93 +18 +18 1019.6 1016.2
17 10.12 З 6
{11}
н/о н/о +18.2 +17.2 94 +18 +18 1019.7 1016.3
16 10.12 З 7
{12}
н/о н/о +18.3 +17.1 93 +18 +18 1019.9 1016.5
18 10.12 З 7
{10}
н/о н/о +18.2 +17.2 94 +18 +18 1019.3 1015.9 +18.2 +22.4
19 10.12 З 8
{11}
н/о н/о +18.1 +16.8 92 +17 +17 1018.7 1015.3
20 10.12 СЗ 9
{12}
н/о н/о +18.0 +16.5 91 +17 +17 1018.1 1014.7
21 10.12 СЗ 10
{15}
н/о н/о +18.1 +16.4 90 +17 +17 1017.3 1013.9
23 10.12 СЗ 10
{14}
н/о н/о +17.8 +16.7 93 +17 +17 1016.8 1013.4
22 10.12 З 10
{16}
н/о н/о +18.1 +16.8 92 +17 +17 1017.1 1013.7
00 11.12 З 11
{16}
н/о н/о +17.9 +16.6 92 +17 +17 1016.8 1013.4
01 11.12 З 10
{15}
н/о н/о +18.6 +16.7 89 +18 +18 1016.5 1013.1
02 11.12 СЗ 11
{15}
н/о н/о +19.2 +16.8 86 +20 +20 1016.3 1012.9
03 11.12 СЗ 12
{16}
н/о н/о +20.4 +17.0 81 +23 +23 комфорт 1016.1 1012.7
05 11.12 СЗ 11
{16}
н/о н/о +21.1 +17.5 80 +25 +25 комфорт 1015.3 1011.9
04 11.12 СЗ 11
{16}
н/о н/о +20.7 +17.1 80 +24 +24 комфорт 1015.7 1012.3
06 11.12 СЗ 11 н/о н/о +21.3 +17.1 77 +25 +25 комфорт 1014.8 1011.4 +17.7 +21.4
07 11.12 СЗ 12
{16}
н/о н/о +21.7 +17.1 75 +26 +26 душно 1014.3 1010.9
08 11.12 СЗ 13
{16}
н/о н/о +21.8 +17.2 75 +26 +26 душно 1013.5 1010.1
09 11.12 СЗ 13
{17}
н/о н/о +21.5 +17.3 77 +26 +26 душно 1012.9 1009.5
11 11.12 СЗ 12
{16}
н/о н/о +20.7 +16.9 79 +23 +23 комфорт 1011.4 1008.0
10 11.12 СЗ 12
{17}
н/о н/о +21.4 +17.2 77 +25 +25 комфорт 1012.3 1008.9
12 11.12 СЗ 13
{19}
н/о н/о +19.5 +16.9 85 +20 +20 1011.0 1007.6
13 11.12 СЗ 13
{18}
н/о н/о +19.2 +16.8 86 +20 +20 1010.7 1007.3
14 11.12 СЗ 13-20
{20}
н/о н/о +19.0 +17.0 88 +19 +19 1010.5 1007.1
15 11.12 СЗ 12-17
{19}
н/о н/о +19.1 +17.1 88 +20 +20 1010.2 1006.8
17 11.12 ЮВ 2
{6}
н/о н/о +16.2 +15.1 93 +16 +16 1010.9 1007.5 3
16 11.12 ЮЗ 5
{17}
н/о н/о +17.1 +15.3 89 +16 +16 1010.9 1007.5 5
18 11.12 ЮЗ 3
{6}
н/о н/о +16.0 +15.2 95 +16 +16 1011.1 1007.7 +15.5 +22.0 9
19 11.12 З 9
{14}
н/о н/о +14.5 +12.5 88 +12 +12 1011.3 1007.8 1
20 11.12 З 9-14
{17}
н/о н/о +14.4 +12.3 87 +12 +12 1010.7 1007.2 1
21 11.12 З 7
{16}
н/о н/о +14.2 +12.8 91 +12 +12 1011.2 1007.7 3
23 11.12 З 4
{11}
н/о н/о +14.4 +13.3 93 +13 +13 1012.1 1008.6 2
22 11.12 З 6
{11}
н/о н/о +13.6 +11.8 89 +11 +11 1011.9 1008.4 0.8
00 12.12 Ю 9-15
{15}
н/о н/о +13.4 +11.5 88 +10 +10 1013.6 1010.1 4
01 12.12 ЮЗ 8-14
{16}
н/о н/о +12.9 +9.3 79 +10 +10 1014.9 1011.4 0.2
02 12.12 ЮЗ 6
{13}
н/о н/о +13.8 +8.6 71 +12 +12 1015.8 1012.3
03 12.12 ЮЗ 7
{13}
н/о н/о +14.3 +8.0 66 +12 +12 1016.7 1013.2 0.2
05 12.12 ЮЗ 8
{12}
н/о н/о +16.3 +8.5 60 +15 +15 1017.9 1014.4
04 12.12 ЮЗ 7
{14}
н/о н/о +15.3 +9.0 66 +14 +14 1017.2 1013.7
06 12.12 ЮЗ 7 н/о н/о +16.6 +8.3 58 +15 +15 1018.7 1015.2 +12.0 +16.9
07 12.12 ЮЗ 7
{13}
н/о н/о +16.9 +6.1 49 +16 +16 1019.0 1015.5
08 12.12 ЮЗ 6
{12}
н/о н/о +16.6 +7.8 56 +16 +16 1019.2 1015.7
09 12.12 ЮЗ 8
{13}
н/о н/о +17.6 +5.8 46 +17 +17 1019.5 1016.0
11 12.12 ЮЗ 5
{14}
н/о н/о +17.9 +7.9 52 +17 +17 1020.1 1016.7
10 12.12 З 7
{13}
н/о н/о +18.0 +6.8 48 +17 +17 1019.8 1016.4
12 12.12 З 7
{12}
н/о н/о +16.3 +5.6 49 +15 +15 1020.8 1017.3
13 12.12 ЮЗ 5
{11}
н/о н/о +15.0 +6.8 58 +14 +14 1021.3 1017.8
14 12.12 ЮЗ 3
{10}
н/о н/о +13.0 +5.9 62 +12 +12 1021.7 1018.2
15 12.12 ЮЗ 3
{8}
н/о н/о +13.0 +7.0 67 +12 +12 1022.3 1018.8
17 12.12 ЮЗ 5
{9}
н/о н/о +13.2 +5.8 61 +11 +11 1023.2 1019.7
16 12.12 ЮЗ 4
{9}
н/о н/о +12.7 +5.6 62 +11 +11 1022.8 1019.3
18 12.12 ЮЗ 5
{10}
н/о н/о +13.6 +6.0 60 +12 +12 1023.5 1020.0 +12.4 +18.1
19 12.12 ЮЗ 5
{11}
н/о н/о +13.7 +6.3 61 +12 +12 1022.8 1019.3
20 12.12 ЮЗ 5
{10}
н/о н/о +13.7 +7.5 66 +12 +12 1022.8 1019.3
21 12.12 ЮЗ 8-14
{14}
н/о н/о +13.8 +4.6 54 +11 +11 1022.8 1019.3
23 12.12 ЮЗ 6
{11}
н/о н/о +13.4 +6.0 61 +11 +11 1023.6 1020.1
22 12.12 ЮЗ 7
{11}
н/о н/о +14.0 +8.2 68 +12 +12 1023.2 1019.7
00 13.12 ЮЗ 5
{9}
н/о н/о +14.1 +7.4 64 +12 +12 1024.0 1020.5
01 13.12 ЮЗ 6
{11}
н/о н/о +14.6 +8.5 67 +13 +13 1024.4 1020.9
02 13.12 ЮЗ 6
{12}
н/о н/о +16.1 +9.5 65 +15 +15 1024.8 1021.3
03 13.12 З 7
{11}
н/о н/о +17.3 +9.0 58 +16 +16 1024.8 1021.3
05 13.12 З 7
{13}
н/о н/о +18.6 +9.6 56 +18 +18 1025.1 1021.6
04 13.12 З 8-14
{14}
н/о н/о +17.5 +8.1 54 +16 +16 1025.1 1021.6
06 13.12 З 7 н/о н/о +18.0 +9.6 58 +17 +17 1025.3 1021.8 +12.6 +18.7
07 13.12 З 7
{13}
н/о н/о +18.9 +9.4 54 +19 +19 1025.4 1021.9
08 13.12 ЮЗ 7
{13}
н/о н/о +17.5 +9.6 60 +17 +17 1025.5 1022.0
09 13.12 З 8
{12}
н/о н/о +19.1 +9.6 54 +19 +19 1025.2 1021.7
11 13.12 З 8
{14}
н/о н/о +17.9 +10.8 63 +17 +17 1024.7 1021.2
10 13.12 З 10
{14}
н/о н/о +18.9 +8.8 52 +19 +19 1024.7 1021.2
12 13.12 ЮЗ 6
{13}
н/о н/о +15.8 +10.3 70 +14 +14 1025.0 1021.5
13 13.12 ЮЗ 6
{10}
н/о н/о +15.9 +10.6 71 +15 +15 1025.4 1021.9
14 13.12 ЮЗ 5
{10}
н/о н/о +14.6 +11.0 79 +13 +13 1025.6 1022.1
15 13.12 ЮЗ 6
{9}
н/о н/о +14.5 +11.3 81 +13 +13 1026.1 1022.6
17 13.12 ЮЗ 5
{10}
н/о н/о +13.6 +12.0 90 +12 +12 1026.5 1023.0
16 13.12 ЮЗ 5
{10}
н/о н/о +15.3 +10.9 75 +14 +14 1026.5 1023.0
18 13.12 З 3
{7}
н/о н/о +13.8 +12.2 90 +13 +13 1026.4 1022.9 +13.1 +19.9 0.2
19 13.12 ЮЗ 5
{9}
н/о н/о +13.5 +11.7 89 +12 +12 1026.1 1022.6
20 13.12 ЮЗ 3
{9}
н/о н/о +13.7 +10.1 79 +13 +13 1025.8 1022.3
21 13.12 ЮЗ 3
{6}
н/о н/о +13.4 +10.0 80 +12 +12 1026.3 1022.8
22 13.12 ЮЗ 4
{7}
н/о н/о +12.8 +9.4 80 +11 +11 1026.0 1022.5

 

Местоположение метеостанции Martin De Vivies Ile Amsterdam (Франц. Южн. Территории): широта -37.80 долгота 77.50 высота над уровнем моря 29 м.

В архиве по умолчанию представлена погода в Martin De Vivies Ile Amsterdam за последнюю неделю. Архивные данные за месяц целиком и за предыдущие месяцы, начиная с января 2011 года, Вы можете получить, выбрав интересующий диапазон дат из раскрывающегося списка и нажав кнопку "Ввод!".


*Определитесь, кто Вы:
робот инопланетянин человек

Внимание! Время в таблицах - всемирное. Для получения местного времени необходимо прибавить поправку, которая в Martin De Vivies Ile Amsterdam равна 5 ч.

Смотрите также архив погоды в соседних городах и на ближайших метеорологических станциях:

Погода в Port-Aux-Francais Iles Kerguelen (Франц. Южн. Территории) (1406 км)
Погода в Heard Island (Австралия) (1727 км)
Погода в Sir Gaetan Duval Airport (Маврикий) (2428 км)
Погода в Rodrigues (Маврикий) (2432 км)
Погода в Sir Seewoosagur Ramgoolam Airport (Маврикий) (2716 км)
Погода в Vacoas Mauritius (Маврикий) (2739 км)

Пояснения к столбцам:

Ветер - указаны скорость ветра в м/с - средняя за 10 мин, порывы в срок и между сроками (в фигурных скобках) и направление, откуда дует ветер: С - северный, СВ - северо-восточный, В - восточный, ЮВ - юго-восточный, Ю - южный, ЮЗ - юго-западный, З - западный, СЗ - северо-западный.
Видимость - горизонтальная дальность видимости в метрах или километрах. При видимости от 1 до 10 км при отсутствии осадков обычно наблюдается дымка, при ухудшении видимости до 1 км и менее - туман. В сухую погоду видимость может ухудшаться дымом, пылью или мглою.
Явления - указаны атмосферные явления, наблюдавшиеся в срок или в последний час перед сроком; фигурными скобками обозначены явления, наблюдавшиеся между сроками (за 1-3 часа до срока); квадратными скобками обозначены град или гололедные отложения с указанием их диаметра в мм.
Облачность - указаны через наклонную черту общая и нижняя облачность в баллах и высота нижней границы облаков в метрах; квадратными скобками обозначены формы облаков: Ci - перистые, Cs - перисто-слоистые, Cc - перисто-кучевые, Ac - высококучевые, As - высокослоистые, Sc - слоисто-кучевые, Ns - слоисто-дождевые, Cu - кучевые, Cb - кучево-дождевые. Подробнее классификацию облаков см. в Атласе облаков (PDF).
T - Температура воздуха - температура, измеренная на высоте 2 м над землей.
Td - Температура точки росы - температура, при понижении до которой содержащийся в воздухе водяной пар достигнет насыщения.
f - Относительная влажность воздуха - влажноcть воздуха, измеренная на высоте 2 м над землей.
Te - Эффективная температура - температура, которую ощущает одетый по сезону человек в тени. Характеристика душности погоды. При расчете учитывается влияние влажности воздуха и скорости ветра на теплоощущения человека.
Tes - Эффективная температура на солнце - температура, которую ощущает человек, с поправкой на солнечный нагрев. Характеристика знойности погоды. Зависит от высоты солнца над горизонтом, облачности и скорости ветра. Ночью, в пасмурную погоду, а также при ветре 12 м/с и более поправка равна нулю.
P - Атмосферное давление - приведенное к уровню моря атмосферное давление.
Po - Атмосферное давление - измеренное на уровне метеостанции атмосферное давление.
Tmin - Минимальная температура - минимум температуры воздуха на высоте 2 м над землей.
Tmax - Максимальная температура - максимум температуры воздуха на высоте 2 м над землей.
R - Количество осадков - Количество выпавших осадков за период времени, мм. При наведении курсора мыши на число - период времени, за который выпало указанное количество осадков.
R24 - Количество осадков - Количество выпавших осадков за 24 часа, мм.
S - Снежный покров - Высота снежного покрова, см. При наведении курсора мыши на число - состояние снежного покрова и степень покрытия местности в баллах.